Location: Unspecified
(0.0000°N, 0.0000°E)
Time: 03:58:11
(UTC+01:00)

BREEZE-M DEB (TANK) - Visible Passes

Search period start: 20 December 2014 00:00
Search period end: 30 December 2014 00:00
Orbit: 316 x 16419 km, 49.4° (Epoch: 19 December)

Date Brightness Start Highest point End Pass type
(mag) Time Alt. Az. Time Alt. Az. Time Alt. Az.
20 Dec 7.0 22:47:05 10° W 22:54:25 13° W 22:58:51 10° SW visible
22 Dec 7.6 05:11:12 10° SE 05:19:27 15° ESE 05:37:28 10° ENE visible
22 Dec 6.4 17:47:51 10° NNW 19:19:48 65° NE 19:31:30 10° SE visible
23 Dec 7.2 05:53:08 10° S 06:04:25 32° ESE 06:58:09 10° NE visible
23 Dec 6.1 18:58:19 10° NW 20:08:50 88° SW 20:18:13 10° SE visible
24 Dec 6.3 20:05:29 10° NW 20:55:44 55° WSW 21:04:04 10° SSE visible
25 Dec 6.7 21:11:52 10° NW 21:41:01 29° WSW 21:48:50 10° SSW visible
26 Dec 7.2 22:21:05 10° W 22:25:46 11° W 22:29:09 10° WSW visible
28 Dec 7.5 04:42:07 10° SE 04:50:22 16° ESE 05:10:06 10° ENE visible
29 Dec 7.0 05:24:40 10° S 05:35:09 35° ESE 06:26:34 10° NE visible
29 Dec 6.3 18:24:36 10° NW 19:40:08 82° WSW 19:50:00 10° SSE visible
